Location: Bethera
(33.2010°N, 79.7880°W)
Time: 07:25:07
(UTC-05:00)

Amateur Radio Satellites - All Passes

Search period start: 07 December 2016 06:55
Search period end: 08 December 2016 06:55
Location: Bethera, 33.2010°N, 79.7880°W

Satellite Date Start Highest point End Downlink Frequencies (MHz)
Time Altitude Azimuth
AIST 1 07 Dec 07:04:40 07:09:05 77° 83° (E) 07:13:28
CUTE-I 07 Dec 07:05:22 07:10:33 54° 287° (WNW) 07:15:42 437.470
BRITE-PL 07 Dec 07:08:10 07:10:15 12° 295° (WNW) 07:12:22 437.365/2234.400
RS-15 07 Dec 07:20:21 07:31:58 84° 115° (ESE) 07:44:14 29.354- 29.394
YUBILEINY 07 Dec 07:21:19 07:29:42 50° 271° (W) 07:38:05 435.215
LilacSat-2 07 Dec 07:24:10 07:26:42 17° 290° (WNW) 07:29:14 437.200
NOAA 18 07 Dec 07:24:16 07:29:44 62° 286° (WNW) 07:35:08 137.9125
NOAA 15 07 Dec 07:24:46 07:29:23 32° 290° (WNW) 07:34:00 137.62
Cubesat XI-IV 07 Dec 07:32:10 07:36:47 31° 290° (WNW) 07:41:22 437.490
CUTE 1.7 + AOD 2 07 Dec 07:37:32 07:41:30 39° 98° (E) 07:45:27 437.475
HO-68 07 Dec 07:41:55 07:48:53 50° 101° (E) 07:55:49 435.675
Cosmos 2491 07 Dec 07:43:35 07:52:12 58° 280° (W) 08:00:48 435.465 / 435.565
Cosmos 2504 07 Dec 07:44:12 07:52:52 71° 268° (W) 08:00:56 435.465 / 435.565
CINEMA 3 07 Dec 07:50:25 07:55:10 81° 284° (WNW) 07:59:41 145.822/145.860
CANX-2 07 Dec 07:55:36 07:59:49 81° 100° (E) 08:04:03 2200.000
AAUSAT CUBESAT 2 07 Dec 07:55:57 07:59:02 20° 95° (E) 08:02:07 437.432
CUBEBUG 2 07 Dec 08:00:48 08:04:28 27° 96° (E) 08:08:02 437.445
PRISM 07 Dec 08:03:13 08:06:25 23° 70° (ENE) 08:09:38 437.425
STRAND 1 07 Dec 08:13:25 08:16:30 16° 266° (W) 08:19:36 437.568
SEEDS 07 Dec 08:18:28 08:22:40 85° 102° (ESE) 08:26:52 437.485
Oscar 11 07 Dec 08:20:00 08:22:16 14° 94° (E) 08:24:32 145.826/435.025
DOVE 4 07 Dec 08:20:52 08:22:27 11° 296° (WNW) 08:24:00 437.250
COMPASS 1 07 Dec 08:26:33 08:30:42 68° 100° (E) 08:34:50 437.405
AIST 2 07 Dec 08:33:05 08:36:30 25° 305° (NW) 08:39:58 435.215
UWE-3 07 Dec 08:40:15 08:44:24 50° 99° (E) 08:48:26 435.000/436.395/437.385
UNISAT 6 07 Dec 08:58:03 09:01:41 23° 70° (ENE) 09:05:17 437.425
CUSAT 1 07 Dec 09:07:46 09:11:01 43° 97° (E) 09:13:45 437.405
CUTE 1.7 + AOD 2 07 Dec 09:14:48 09:16:58 14° 292° (WNW) 09:19:07 437.475
ZACube-1 07 Dec 09:18:24 09:22:37 88° 102° (ESE) 09:26:45 437.345
FUNcube-1 07 Dec 09:25:22 09:29:34 83° 282° (WNW) 09:33:40 145.935
TIGRISAT 07 Dec 09:26:41 09:31:08 44° 74° (ENE) 09:35:33 435.000
ANTELSAT 07 Dec 09:28:25 09:32:56 49° 74° (ENE) 09:37:25 437.575/2403.000
HO-68 07 Dec 09:30:24 09:36:10 27° 296° (WNW) 09:41:57 435.675
AAUSAT CUBESAT 2 07 Dec 09:31:02 09:34:25 25° 288° (WNW) 09:37:49 437.432
RS-15 07 Dec 09:36:11 09:45:59 29° 319° (NW) 09:56:10 29.354- 29.394
CUBEBUG 2 07 Dec 09:37:44 09:40:53 20° 291° (WNW) 09:43:57 437.445
PRISM 07 Dec 09:38:29 09:41:35 21° 264° (W) 09:44:43 437.425
Oscar 11 07 Dec 09:54:32 09:58:30 38° 286° (WNW) 10:02:28 145.826/435.025
POPSAT HIP 1 07 Dec 10:03:58 10:04:28 10° 66° (ENE) 10:04:58 437.405
DANDE 07 Dec 10:04:38 10:09:37 63° 98° (E) 10:13:21 436.750
AO-85 07 Dec 10:10:29 10:12:57 16° 51° (NE) 10:15:23 145.980
JUGNU 07 Dec 10:17:18 10:20:50 16° 168° (SSE) 10:24:22 437.505
DELFI C3 07 Dec 10:17:37 10:21:32 56° 284° (WNW) 10:25:26 145.870
UWE-3 07 Dec 10:19:17 10:20:19 11° 294° (WNW) 10:21:21 435.000/436.395/437.385
UNISAT 6 07 Dec 10:34:06 10:38:10 29° 263° (W) 10:42:14 437.425
HUMSAT D 07 Dec 10:34:40 10:38:44 75° 283° (WNW) 10:42:47 437.325/437.525
JAS-2 07 Dec 10:35:56 10:42:19 53° 74° (ENE) 10:48:00 435.910
ESTCUBE 1 07 Dec 10:36:03 10:37:42 12° 93° (E) 10:39:21 437.505/2401.250
Cosmos 2499 07 Dec 10:41:07 10:47:20 22° 70° (ENE) 10:53:13 435.465 / 435.565
NANOSAT C BR1 07 Dec 10:53:47 10:57:46 40° 73° (ENE) 11:01:45 145.865
CUBEBUG 1 07 Dec 10:59:05 11:01:02 13° 93° (E) 11:03:00 437.445
QB50P2 07 Dec 11:00:45 11:04:56 58° 75° (ENE) 11:09:09 145.880/145.840
POLYITAN 1 07 Dec 11:01:15 11:05:26 55° 75° (ENE) 11:09:38 437.675
TIGRISAT 07 Dec 11:05:19 11:07:56 15° 267° (W) 11:10:32 435.000
ANTELSAT 07 Dec 11:07:37 11:09:48 13° 267° (W) 11:12:00 437.575/2403.000
PCSat 07 Dec 11:09:16 11:14:40 86° 115° (ESE) 11:20:06 145.827
VELOX 1 07 Dec 11:13:40 11:15:22 12° 93° (E) 11:17:04 145.980
QB50P1 07 Dec 11:13:44 11:18:00 79° 77° (ENE) 11:22:18 145.935-145.965
DUCHIFAT 1 07 Dec 11:14:59 11:19:12 68° 75° (ENE) 11:23:26 145.980
POPSAT HIP 1 07 Dec 11:35:30 11:39:42 56° 260° (W) 11:43:55 437.405
SPROUT 07 Dec 11:35:59 11:38:13 14° 94° (E) 11:40:26 437.525
AO-85 07 Dec 11:49:55 11:53:25 32° 247° (WSW) 11:56:52 145.980
GONETS M04 07 Dec 11:58:28 12:07:10 70° 82° (E) 12:15:52
SRMSAT 07 Dec 12:00:04 12:02:14 12° 164° (SSE) 12:04:23 437.500
RS-15 07 Dec 12:01:08 12:04:53 12° 354° (N) 12:08:39 29.354- 29.394
JUGNU 07 Dec 12:04:43 12:09:12 22° 178° (S) 12:13:41 437.505
BUGSAT 1 07 Dec 12:06:08 12:10:21 81° 257° (WSW) 12:14:37 437.445
ESTCUBE 1 07 Dec 12:10:21 12:14:43 50° 286° (WNW) 12:19:05 437.505/2401.250
AISAT 07 Dec 12:10:48 12:15:15 65° 102° (ESE) 12:19:40 437.250
JAS-2 07 Dec 12:22:56 12:27:27 19° 264° (W) 12:31:40 435.910
NANOSAT C BR1 07 Dec 12:31:33 12:33:36 13° 267° (W) 12:35:38 145.865
Cosmos 2499 07 Dec 12:32:46 12:41:06 64° 269° (W) 12:48:46 435.465 / 435.565
CUBEBUG 1 07 Dec 12:33:15 12:37:29 45° 286° (WNW) 12:41:41 437.445
50 SAT 07 Dec 12:40:42 12:44:11 55° 284° (WNW) 12:47:41 437.505
Oscar 19 07 Dec 12:46:50 12:51:50 58° 74° (ENE) 12:56:52 437.125/150
VELOX 1 07 Dec 12:47:43 12:52:02 48° 286° (WNW) 12:56:18 145.980
TISAT 1 07 Dec 12:52:27 12:55:00 16° 94° (E) 12:57:32 437.305
Gurwin Techsat 1B 07 Dec 12:54:52 12:59:36 34° 70° (ENE) 13:04:22 435.225
DX 1 07 Dec 12:56:04 13:00:28 77° 285° (WNW) 13:04:51 434.975-435.025
PCSat 07 Dec 12:56:36 12:58:44 12° 311° (NW) 13:00:53 145.827
UKube-1 07 Dec 13:00:20 13:04:41 86° 107° (ESE) 13:09:00 .
SPROUT 07 Dec 13:10:16 13:14:15 38° 287° (WNW) 13:18:11 437.525
ITAMSAT 1 07 Dec 13:21:41 13:23:51 13° 64° (ENE) 13:26:01 435.822/435.867
BEESAT 3 07 Dec 13:43:56 13:47:43 41° 58° (ENE) 13:51:28 437.485
AO-7 07 Dec 13:44:38 13:51:01 26° 59° (ENE) 13:57:25 29.400- 29.500
SRMSAT 07 Dec 13:46:30 13:50:43 20° 173° (S) 13:54:55 437.500
JUGNU 07 Dec 13:53:25 13:57:36 20° 188° (S) 14:01:47 437.505
M-CUBED/EXP-1 PRIME 07 Dec 13:54:15 13:56:37 14° 97° (E) 13:58:55 437.505
GONETS M04 07 Dec 13:57:17 14:03:03 20° 278° (W) 14:08:51
ITUPSAT 1 07 Dec 13:59:48 14:02:53 17° 95° (E) 14:05:57 437.325
ISS 07 Dec 14:15:57 14:17:47 14° 127° (SE) 14:19:36 145.825
BEESAT 2 07 Dec 14:16:16 14:20:06 41° 58° (ENE) 14:23:55 435.950
RS-15 07 Dec 14:16:29 14:24:59 20° 32° (NNE) 14:33:20 29.354- 29.394
TISAT 1 07 Dec 14:26:55 14:30:41 32° 288° (WNW) 14:34:25 437.305
Oscar 19 07 Dec 14:29:14 14:31:27 13° 267° (W) 14:33:41 437.125/150
Gurwin Techsat 1B 07 Dec 14:35:17 14:39:31 24° 264° (W) 14:43:47 435.225
O/OREOS (USA 219) 07 Dec 14:56:45 15:00:26 25° 102° (ESE) 15:04:07 437.305
ITAMSAT 1 07 Dec 14:57:30 15:02:41 67° 258° (WSW) 15:07:53 435.822/435.867
SWISSCUBE 07 Dec 15:03:30 15:08:15 78° 285° (WNW) 15:12:59 437.505
BEESAT 07 Dec 15:07:23 15:12:08 80° 284° (WNW) 15:16:53 436.000
AUBIESAT-1 07 Dec 15:13:06 15:17:40 84° 289° (WNW) 15:21:57 437.475
BEESAT 3 07 Dec 15:23:17 15:24:56 12° 252° (WSW) 15:26:35 437.485
M-CUBED/EXP-1 PRIME 07 Dec 15:26:51 15:31:17 46° 291° (WNW) 15:35:30 437.505
SRMSAT 07 Dec 15:34:52 15:39:15 22° 183° (S) 15:43:39 437.500
AO-7 07 Dec 15:34:55 15:43:06 64° 256° (WSW) 15:51:22 29.400- 29.500
ITUPSAT 1 07 Dec 15:36:24 15:40:48 39° 288° (WNW) 15:45:12 437.325
JUGNU 07 Dec 15:44:09 15:45:56 11° 197° (SSW) 15:47:42 437.505
ISS 07 Dec 15:50:54 15:53:59 38° 320° (NW) 15:57:06 145.825
BEESAT 2 07 Dec 15:55:47 15:57:29 12° 252° (WSW) 15:59:11 435.950
MOZHAYETS 4 07 Dec 15:59:29 16:04:03 90° 144° (SE) 16:08:36
CUBESAT XI-V 07 Dec 16:08:26 16:10:37 13° 93° (E) 16:12:48 437.345
KKS-1 07 Dec 16:18:10 16:22:34 55° 101° (E) 16:26:55 437.445
STARS 07 Dec 16:20:16 16:23:52 24° 97° (E) 16:27:25 437.465
HORYU 2 07 Dec 16:26:23 16:30:26 34° 72° (ENE) 16:34:29 437.375
RS-15 07 Dec 16:28:06 16:40:26 67° 58° (ENE) 16:52:15 29.354- 29.394
BRITE-PL 07 Dec 16:34:13 16:38:20 51° 74° (ENE) 16:42:44 437.365/2234.400
O/OREOS (USA 219) 07 Dec 16:35:57 16:39:42 25° 296° (WNW) 16:43:27 437.305
CUTE-I 07 Dec 16:45:05 16:48:30 17° 66° (ENE) 16:51:55 437.470
AIST 2 07 Dec 16:57:22 17:01:31 56° 60° (ENE) 17:05:39 435.215
NOAA 15 07 Dec 17:01:25 17:05:46 28° 69° (ENE) 17:10:09 137.62
NOAA 18 07 Dec 17:07:45 17:11:32 19° 65° (ENE) 17:15:19 137.9125
Cubesat XI-IV 07 Dec 17:10:09 17:14:47 30° 69° (ENE) 17:19:25 437.490
SRMSAT 07 Dec 17:24:29 17:27:46 15° 193° (SSW) 17:31:02 437.500
GOMX 1 07 Dec 17:39:10 17:43:38 74° 258° (WSW) 17:48:30 467.674
DOVE 4 07 Dec 17:41:01 17:45:32 45° 73° (ENE) 17:50:19 437.250
CUBESAT XI-V 07 Dec 17:43:41 17:48:10 48° 286° (WNW) 17:52:40 437.345
STARS 07 Dec 17:56:33 18:00:04 24° 290° (WNW) 18:03:34 437.465
KKS-1 07 Dec 17:57:06 17:58:35 11° 295° (WNW) 18:00:04 437.445
Cosmos 2491 07 Dec 17:59:03 18:07:39 59° 81° (E) 18:16:12 435.465 / 435.565
LilacSat-2 07 Dec 18:00:24 18:04:14 68° 259° (W) 18:08:03 437.200
HORYU 2 07 Dec 18:04:04 18:07:00 17° 265° (W) 18:09:58 437.375
HO-68 07 Dec 18:07:08 18:12:38 25° 63° (ENE) 18:18:08 435.675
YUBILEINY 07 Dec 18:20:38 18:28:29 40° 87° (E) 18:36:22 435.215
CUTE-I 07 Dec 18:22:53 18:28:04 50° 260° (W) 18:33:18 437.470
Cosmos 2504 07 Dec 18:26:24 18:31:37 18° 80° (E) 18:36:59 435.465 / 435.565
CUTE 1.7 + AOD 2 07 Dec 18:27:06 18:29:47 17° 69° (ENE) 18:32:28 437.475
SO-50 07 Dec 18:36:50 18:40:22 21° 110° (ESE) 18:43:53 436.795
NOAA 15 07 Dec 18:40:54 18:45:24 29° 263° (W) 18:49:56 137.62
RS-15 07 Dec 18:41:58 18:51:54 31° 257° (WSW) 19:01:35 29.354- 29.394
CANX-2 07 Dec 18:44:17 18:48:01 31° 73° (ENE) 18:51:44 2200.000
NOAA 18 07 Dec 18:46:25 18:51:45 49° 260° (W) 18:57:07 137.9125
CINEMA 3 07 Dec 18:46:44 18:51:31 56° 75° (ENE) 18:56:26 145.822/145.860
STRAND 1 07 Dec 18:47:39 18:51:38 23° 96° (E) 18:55:34 437.568
Cubesat XI-IV 07 Dec 18:50:12 18:54:45 28° 263° (W) 18:59:19 437.490
CUBEBUG 2 07 Dec 18:55:12 18:58:06 16° 68° (ENE) 19:01:00 437.445
SEEDS 07 Dec 19:06:04 19:09:46 32° 73° (ENE) 19:13:28 437.485
COMPASS 1 07 Dec 19:13:28 19:16:51 25° 72° (ENE) 19:20:14 437.405
DOVE 4 07 Dec 19:20:40 19:23:27 15° 269° (W) 19:26:20 437.250
AIST 1 07 Dec 19:29:18 19:33:29 54° 93° (E) 19:37:43
UWE-3 07 Dec 19:32:52 19:36:44 26° 71° (ENE) 19:40:34 435.000/436.395/437.385
CUSAT 1 07 Dec 19:41:42 19:45:03 23° 81° (E) 19:49:08 437.405
HO-68 07 Dec 19:52:52 19:59:50 55° 258° (WSW) 20:06:52 435.675
Cosmos 2491 07 Dec 19:57:15 20:03:45 24° 277° (W) 20:10:17 435.465 / 435.565
CUTE 1.7 + AOD 2 07 Dec 20:01:35 20:05:20 31° 263° (W) 20:09:06 437.475
PCSat 07 Dec 20:01:51 20:06:31 28° 57° (ENE) 20:11:08 145.827
ZACube-1 07 Dec 20:09:29 20:13:44 40° 74° (ENE) 20:17:56 437.345
Cosmos 2504 07 Dec 20:15:36 20:23:51 76° 277° (W) 20:32:40 435.465 / 435.565
AAUSAT CUBESAT 2 07 Dec 20:15:58 20:20:01 67° 258° (WSW) 20:24:07 437.432
FUNcube-1 07 Dec 20:16:04 20:20:22 44° 74° (ENE) 20:24:37 145.935
SO-50 07 Dec 20:16:11 20:20:35 36° 303° (WNW) 20:24:57 436.795
YUBILEINY 07 Dec 20:17:17 20:25:09 37° 284° (WNW) 20:33:06 435.215
CANX-2 07 Dec 20:21:15 20:23:53 16° 266° (W) 20:26:32 2200.000
STRAND 1 07 Dec 20:26:15 20:30:47 33° 289° (WNW) 20:35:18 437.568
CINEMA 3 07 Dec 20:26:46 20:28:56 13° 269° (W) 20:31:08 145.822/145.860
CUBEBUG 2 07 Dec 20:29:48 20:34:19 43° 261° (W) 20:38:50 437.445
SEEDS 07 Dec 20:42:59 20:45:28 16° 266° (W) 20:48:00 437.485
Oscar 11 07 Dec 20:44:20 20:48:39 88° 266° (W) 20:52:59 145.826/435.025
DANDE 07 Dec 20:45:46 20:48:13 20° 81° (E) 20:51:06 436.750
COMPASS 1 07 Dec 20:49:19 20:52:19 19° 265° (W) 20:55:19 437.405
DELFI C3 07 Dec 20:58:53 21:02:34 41° 74° (ENE) 21:06:16 145.870
UWE-3 07 Dec 21:09:16 21:13:04 24° 264° (W) 21:16:50 435.000/436.395/437.385
HUMSAT D 07 Dec 21:21:24 21:25:21 40° 74° (ENE) 21:29:16 437.325/437.525
PRISM 07 Dec 21:22:43 21:26:53 68° 102° (ESE) 21:31:01 437.425
CUSAT 1 07 Dec 21:23:18 21:26:47 24° 264° (W) 21:31:04 437.405
TIGRISAT 07 Dec 21:24:54 21:26:19 11° 92° (E) 21:27:42 435.000
ANTELSAT 07 Dec 21:26:18 21:28:19 13° 93° (E) 21:30:19 437.575/2403.000
PCSat 07 Dec 21:45:04 21:49:50 32° 252° (WSW) 21:54:36 145.827
ZACube-1 07 Dec 21:47:28 21:50:05 15° 266° (W) 21:52:42 437.345
PHONESAT 2.4 07 Dec 21:53:07 21:53:54 11° 142° (SE) 21:54:42 2401.200-2431.200
FUNcube-1 07 Dec 21:54:26 21:56:43 14° 267° (W) 21:58:59 145.935
Cosmos 2504 07 Dec 22:15:49 22:18:45 12° 296° (WNW) 22:21:45 435.465 / 435.565
ISS 07 Dec 22:22:05 22:25:02 29° 38° (NE) 22:27:59 145.825
DANDE 07 Dec 22:29:22 22:30:46 12° 264° (W) 22:32:17 436.750
UNISAT 6 07 Dec 22:29:30 22:33:52 83° 101° (E) 22:38:08 437.425
DELFI C3 07 Dec 22:36:56 22:37:32 10° 267° (W) 22:38:08 145.870
QB50P2 07 Dec 22:51:40 22:53:36 13° 93° (E) 22:55:32 145.880/145.840
POLYITAN 1 07 Dec 22:52:24 22:54:03 12° 93° (E) 22:55:43 437.675
TIGRISAT 07 Dec 22:59:04 23:03:13 45° 286° (WNW) 23:07:17 435.000
HUMSAT D 07 Dec 22:59:14 23:01:04 13° 267° (W) 23:02:54 437.325/437.525
ANTELSAT 07 Dec 23:01:07 23:05:12 40° 287° (WNW) 23:09:11 437.575/2403.000
GONETS M04 07 Dec 23:03:00 23:06:56 14° 79° (E) 23:10:53
QB50P1 07 Dec 23:03:47 23:06:35 17° 95° (E) 23:09:21 145.935-145.965
AISAT 07 Dec 23:04:00 23:07:56 33° 72° (ENE) 23:11:55 437.250
DUCHIFAT 1 07 Dec 23:04:44 23:07:04 14° 94° (E) 23:09:23 145.980
ESTCUBE 1 07 Dec 23:05:10 23:09:38 87° 77° (ENE) 23:14:08 437.505/2401.250
50 SAT 07 Dec 23:12:03 23:15:01 26° 73° (ENE) 23:17:59 437.505
Cosmos 2499 07 Dec 23:12:31 23:18:16 20° 81° (E) 23:24:09 435.465 / 435.565
CUBEBUG 1 07 Dec 23:24:23 23:28:43 86° 76° (ENE) 23:33:07 437.445
POPSAT HIP 1 07 Dec 23:24:42 23:28:27 30° 98° (E) 23:32:08 437.405
PHONESAT 2.4 07 Dec 23:26:09 23:28:48 78° 334° (NNW) 23:31:28 2401.200-2431.200
JAS-2 07 Dec 23:33:50 23:39:03 64° 102° (ESE) 23:44:39 435.910
VELOX 1 07 Dec 23:40:14 23:44:38 86° 76° (ENE) 23:49:05 145.980
DX 1 07 Dec 23:47:09 23:51:21 51° 74° (ENE) 23:55:35 434.975-435.025
UKube-1 07 Dec 23:50:33 23:54:34 40° 73° (ENE) 23:58:36 .
BUGSAT 1 07 Dec 23:53:04 23:56:06 19° 95° (E) 23:59:06 437.445
SPROUT 07 Dec 23:58:42 00:03:00 90° 73° (ENE) 00:07:20 437.525
ISS 07 Dec 23:58:55 00:01:23 19° 232° (SW) 00:03:50 145.825
NANOSAT C BR1 08 Dec 00:17:34 00:21:43 58° 285° (WNW) 00:25:50 145.865
AO-85 08 Dec 00:20:20 00:23:41 18° 110° (ESE) 00:26:55 145.980
QB50P2 08 Dec 00:25:35 00:29:32 39° 287° (WNW) 00:33:27 145.880/145.840
POLYITAN 1 08 Dec 00:26:02 00:30:01 42° 286° (WNW) 00:33:58 437.675
QB50P1 08 Dec 00:38:39 00:42:20 30° 288° (WNW) 00:46:01 145.935-145.965
DUCHIFAT 1 08 Dec 00:39:00 00:42:49 35° 287° (WNW) 00:46:37 145.980
AISAT 08 Dec 00:41:30 00:44:26 17° 265° (W) 00:47:22 437.250
50 SAT 08 Dec 00:46:42 00:48:18 13° 266° (W) 00:49:55 437.505
GONETS M04 08 Dec 00:53:43 01:02:27 90° 275° (W) 01:11:12
POPSAT HIP 1 08 Dec 01:01:08 01:03:56 17° 291° (WNW) 01:06:44 437.405
Cosmos 2499 08 Dec 01:01:54 01:10:21 72° 278° (W) 01:19:15 435.465 / 435.565
PHONESAT 2.4 08 Dec 01:02:13 01:04:17 20° 350° (N) 01:06:20 2401.200-2431.200
Oscar 19 08 Dec 01:03:00 01:07:29 29° 97° (E) 01:11:57 437.125/150
ITUPSAT 1 08 Dec 01:03:37 01:05:49 13° 65° (ENE) 01:08:02 437.325
O/OREOS (USA 219) 08 Dec 01:10:39 01:14:16 24° 64° (ENE) 01:17:53 437.305
TISAT 1 08 Dec 01:13:23 01:17:37 81° 257° (WSW) 01:21:53 437.305
Gurwin Techsat 1B 08 Dec 01:16:00 01:19:42 19° 94° (E) 01:23:22 435.225
JAS-2 08 Dec 01:21:32 01:23:40 12° 295° (WNW) 01:25:51 435.910
DX 1 08 Dec 01:26:54 01:27:46 10° 267° (W) 01:28:39 434.975-435.025
BUGSAT 1 08 Dec 01:27:57 01:31:24 25° 289° (WNW) 01:34:47 437.445
UKube-1 08 Dec 01:28:36 01:30:43 13° 266° (W) 01:32:51 .
AUBIESAT-1 08 Dec 01:54:12 01:58:13 57° 70° (ENE) 02:02:31 437.475
AO-85 08 Dec 01:59:06 02:03:52 43° 301° (WNW) 02:08:18 145.980
SWISSCUBE 08 Dec 02:05:27 02:10:12 75° 76° (ENE) 02:14:58 437.505
M-CUBED/EXP-1 PRIME 08 Dec 02:08:15 02:12:16 74° 254° (WSW) 02:16:39 437.505
BEESAT 08 Dec 02:09:16 02:14:01 73° 75° (ENE) 02:18:46 436.000
PHONESAT 2.4 08 Dec 02:38:07 02:40:03 18° 7° (N) 02:41:57 2401.200-2431.200
ITUPSAT 1 08 Dec 02:38:27 02:43:08 54° 259° (W) 02:47:49 437.325
Oscar 19 08 Dec 02:42:19 02:46:40 28° 291° (WNW) 02:51:00 437.125/150
O/OREOS (USA 219) 08 Dec 02:49:56 02:53:32 24° 258° (WSW) 02:57:08 437.305
Gurwin Techsat 1B 08 Dec 02:54:46 02:59:46 43° 288° (WNW) 03:04:44 435.225
GONETS M04 08 Dec 02:55:57 03:00:22 15° 293° (WNW) 03:04:49
MOZHAYETS 4 08 Dec 02:56:54 03:01:20 51° 74° (ENE) 03:05:46
Cosmos 2499 08 Dec 03:02:31 03:05:03 11° 297° (WNW) 03:07:36 435.465 / 435.565
KKS-1 08 Dec 03:12:12 03:16:04 30° 71° (ENE) 03:19:58 437.445
STARS 08 Dec 03:14:05 03:16:17 14° 66° (ENE) 03:18:29 437.465
ITAMSAT 1 08 Dec 03:14:37 03:19:45 61° 102° (ESE) 03:24:51 435.822/435.867
BEESAT 3 08 Dec 03:30:58 03:33:43 19° 110° (ESE) 03:36:28 437.485
AO-7 08 Dec 03:41:11 03:49:26 59° 103° (ESE) 03:57:38 29.400- 29.500
BEESAT 2 08 Dec 04:04:38 04:07:30 20° 110° (ESE) 04:10:24 435.950
PHONESAT 2.4 08 Dec 04:13:00 04:15:35 53° 23° (NNE) 04:18:10 2401.200-2431.200
MOZHAYETS 4 08 Dec 04:37:01 04:38:43 12° 267° (W) 04:40:25
YUBILEINY 08 Dec 04:37:54 04:42:25 15° 67° (ENE) 04:46:56 435.215
CUBESAT XI-V 08 Dec 04:42:17 04:46:52 82° 258° (WSW) 04:51:28 437.345
BRITE-PL 08 Dec 04:42:23 04:47:12 29° 96° (E) 04:52:04 437.365/2234.400
STARS 08 Dec 04:47:58 04:52:12 45° 261° (W) 04:56:27 437.465
KKS-1 08 Dec 04:49:20 04:52:35 20° 264° (W) 04:55:52 437.445
SO-50 08 Dec 04:51:12 04:55:40 62° 60° (ENE) 05:00:04 436.795
ITAMSAT 1 08 Dec 04:56:11 04:58:38 14° 296° (WNW) 05:01:05 435.822/435.867
Cosmos 2491 08 Dec 05:05:48 05:07:46 11° 77° (ENE) 05:09:44 435.465 / 435.565
BEESAT 3 08 Dec 05:07:48 05:11:07 26° 305° (NW) 05:14:29 437.485
NOAA 15 08 Dec 05:21:50 05:24:35 14° 93° (E) 05:27:20 137.62
Cubesat XI-IV 08 Dec 05:32:31 05:35:49 17° 94° (E) 05:39:06 437.490
AO-7 08 Dec 05:34:54 05:41:37 28° 299° (WNW) 05:48:20 29.400- 29.500
LilacSat-2 08 Dec 05:38:53 05:41:20 16° 95° (E) 05:43:46 437.200
BEESAT 2 08 Dec 05:41:47 05:45:06 26° 305° (NW) 05:48:28 435.950
GOMX 1 08 Dec 05:44:43 05:50:04 50° 99° (E) 05:55:18 467.674
DOVE 4 08 Dec 05:45:05 05:48:47 19° 93° (E) 05:52:23 437.250
PHONESAT 2.4 08 Dec 05:48:53 05:50:35 16° 216° (SW) 05:52:16 2401.200-2431.200
HORYU 2 08 Dec 05:57:21 06:01:44 64° 285° (WNW) 06:06:05 437.375
STRAND 1 08 Dec 05:59:41 06:03:34 22° 68° (ENE) 06:07:27 437.568
Cosmos 2504 08 Dec 06:14:27 06:22:06 33° 74° (ENE) 06:29:17 435.465 / 435.565
BRITE-PL 08 Dec 06:20:40 06:25:31 32° 289° (WNW) 06:30:30 437.365/2234.400
YUBILEINY 08 Dec 06:31:29 06:40:21 88° 80° (E) 06:49:13 435.215
CUTE-I 08 Dec 06:44:03 06:49:24 88° 277° (W) 06:54:42 437.470
CINEMA 3 08 Dec 06:47:11 06:50:25 18° 93° (E) 06:53:31 145.822/145.860
